Home   Weather   Hockenheim   Past weeks

Flag for Germany Past Weather in Hockenheim, Baden-Württemberg, Germany — Yesterday and Last 2 Weeks

Now
61 °F

Sunny.


Feels Like: 61 °F
Forecast: 58 / 82 °F
Wind: 2 mph from North

Location: Mannheim City

Current Time: Aug 31, 2016 at 8:30:41 AM

Latest Report: Aug 31, 2016 at 7:50 AM


Visibility: 10 mi

Pressure: 30.15 "Hg

Humidity: 72%

Dew Point: 52 °F

Location of HockenheimLocation

Past Weather in Hockenheim — Graph

°F

Hockenheim Temperature Yesterday

Maximum temperature yesterday: 79 °F (at 3:50 PM)
Minimum temperature yesterday: 61 °F (at 5:50 AM)
Average temperature yesterday: 72 °F

High & Low Weather Summary for the Past Weeks

 TemperatureHumidityPressure
High95 °F (Aug 26, 5:20 PM)100% (Aug 19, 5:20 AM)30.39 "Hg (Aug 19, 5:20 AM)
Low54 °F (Aug 18, 6:20 AM)23% (Aug 25, 4:50 PM)29.80 "Hg (Aug 18, 4:20 PM)
Average74 °F60%30.07 "Hg
* Reported Aug 16 7:20 AM — Aug 31 7:20 AM, Hockenheim, Weather by CustomWeather, © 2016

Note: Actual official high and low records may vary slightly from our data, if they occured in-between our weather recording intervals... More about our weather records

Advertising

Hockenheim Weather History for the Previous 24 Hours

Scroll right to see more
 ConditionsComfort  
Time TempWeatherWind HumidityBarometerVisibility
7:20 AM
Wed, Aug 31
59 °FClear.No wind77%30.15 "Hg10 mi
6:50 AM57 °FClear.1 mph82%30.15 "Hg10 mi
6:20 AM57 °FClear.2 mph77%30.15 "Hg10 mi
5:50 AM57 °FClear.2 mph77%30.15 "Hg10 mi
8:50 PM
Tue, Aug 30
72 °FSunny.5 mph50%30.18 "Hg10 mi
8:20 PM73 °FSunny.5 mph47%30.18 "Hg10 mi
7:50 PM75 °FSunny.7 mph44%30.18 "Hg10 mi
7:20 PM77 °FPassing clouds.8 mph42%30.18 "HgN/A
6:50 PM77 °FSunny.8 mph42%30.18 "Hg10 mi
6:20 PM79 °FPassing clouds.8 mph39%30.18 "HgN/A
5:50 PM79 °FPassing clouds.6 mph37%30.18 "HgN/A
5:20 PM79 °FSunny.6 mph39%30.18 "Hg10 mi
4:50 PM79 °FPassing clouds.9 mph39%30.21 "HgN/A
4:20 PM79 °FPassing clouds.7 mph39%30.21 "HgN/A
3:50 PM79 °FPassing clouds.6 mph39%30.21 "HgN/A
3:20 PM77 °FPassing clouds.9 mph42%30.21 "HgN/A
2:50 PM75 °FPassing clouds.8 mph44%30.24 "HgN/A
2:20 PM75 °FPassing clouds.8 mph44%30.24 "HgN/A
1:50 PM77 °FPassing clouds.12 mph44%30.24 "HgN/A
1:20 PM75 °FPassing clouds.6 mph47%30.24 "HgN/A
12:50 PM75 °FPassing clouds.7 mph47%30.24 "HgN/A
12:20 PM75 °FPassing clouds.9 mph50%30.27 "HgN/A
11:50 AM73 °FPassing clouds.7 mph50%30.27 "HgN/A
11:20 AM72 °FPassing clouds.6 mph53%30.27 "HgN/A
10:50 AM70 °FPassing clouds.7 mph57%30.27 "HgN/A
10:20 AM70 °FPassing clouds.8 mph60%30.27 "HgN/A
9:50 AM68 °FPassing clouds.6 mph69%30.27 "HgN/A
9:20 AM66 °FPassing clouds.7 mph68%30.27 "HgN/A
8:50 AM64 °FPassing clouds.5 mph78%30.27 "HgN/A
8:20 AM63 °FSunny.6 mph88%30.27 "Hg10 mi
Weather by CustomWeather, © 2016

See weather overviewHow to use our weather pages